TCA7378 TFFM-TFFR

Flight info

Callsign TCA7378
Flight time 0h 17m
Altitude 12000
Route TFFS DCT TFFB/N0331F110
Aircraft C25B/M-SDE2E3FGHRWXY/LB1

Departure

Time 2026-04-25 19:44
Airport Marie-Galante Airport (TFFM)

Arrival

Time 2026-04-25 20:01
Airport Maryse Condé International Airport (TFFR)
Time Latitude Longitude Altitude Speed Heading
2026-04-25 19:37 15.86936 -61.27236 17 ft 0 kts 79°
2026-04-25 19:42 15.86937 -61.27232 17 ft 3 kts 88°
2026-04-25 19:42 15.86908 -61.27241 16 ft 10 kts 185°
2026-04-25 19:43 15.86840 -61.27282 13 ft 17 kts 259°
2026-04-25 19:43 15.86813 -61.27410 12 ft 19 kts 256°
2026-04-25 19:43 15.86813 -61.27536 14 ft 15 kts 271°
2026-04-25 19:43 15.86789 -61.27535 13 ft 0 kts 77°
2026-04-25 19:44 15.86790 -61.27531 13 ft 9 kts 76°
2026-04-25 19:44 15.86886 -61.27048 20 ft 127 kts 78°
2026-04-25 19:44 15.87069 -61.25949 735 ft 171 kts 91°
2026-04-25 19:44 15.86808 -61.24634 1893 ft 201 kts 113°
2026-04-25 19:45 15.85846 -61.23521 2849 ft 221 kts 150°
2026-04-25 19:45 15.84323 -61.23286 3956 ft 228 kts 188°
2026-04-25 19:45 15.82933 -61.24083 5110 ft 237 kts 224°
2026-04-25 19:45 15.82194 -61.25629 6204 ft 246 kts 257°
2026-04-25 19:46 15.82239 -61.27417 7287 ft 252 kts 275°
2026-04-25 19:46 15.82495 -61.29206 8287 ft 256 kts 277°
2026-04-25 19:46 15.82784 -61.31041 9268 ft 259 kts 277°
2026-04-25 19:46 15.83035 -61.32906 10214 ft 262 kts 275°
2026-04-25 19:47 15.83287 -61.34780 11200 ft 263 kts 276°
2026-04-25 19:47 15.83546 -61.36674 11962 ft 274 kts 276°
2026-04-25 19:47 15.83818 -61.38728 12002 ft 293 kts 276°
2026-04-25 19:47 15.84112 -61.40833 12002 ft 295 kts 276°
2026-04-25 19:48 15.84398 -61.42922 12001 ft 297 kts 276°
2026-04-25 19:48 15.84680 -61.45049 12006 ft 298 kts 276°
2026-04-25 19:48 15.84970 -61.47178 12009 ft 299 kts 276°
2026-04-25 19:48 15.85265 -61.49319 12009 ft 299 kts 276°
2026-04-25 19:49 15.85550 -61.51457 12009 ft 300 kts 276°
2026-04-25 19:49 15.85747 -61.52880 12008 ft 300 kts 276°
2026-04-25 19:49 15.86150 -61.55751 12007 ft 300 kts 279°
2026-04-25 19:49 15.86864 -61.57793 11999 ft 303 kts 294°
2026-04-25 19:50 15.89427 -61.61235 11995 ft 307 kts 312°
2026-04-25 19:50 15.90875 -61.62858 11996 ft 306 kts 309°
2026-04-25 19:50 15.92337 -61.64474 11997 ft 307 kts 311°
2026-04-25 19:51 15.93831 -61.66062 11998 ft 307 kts 311°
2026-04-25 19:51 15.95307 -61.67670 11999 ft 308 kts 311°
2026-04-25 19:51 15.96789 -61.69282 11878 ft 311 kts 311°
2026-04-25 19:51 15.98323 -61.70956 11188 ft 331 kts 311°
2026-04-25 19:52 15.99970 -61.72736 10296 ft 351 kts 312°
2026-04-25 19:52 16.01794 -61.74427 9534 ft 362 kts 324°
2026-04-25 19:52 16.03986 -61.75736 9012 ft 363 kts 330°
2026-04-25 19:52 16.06173 -61.77036 8586 ft 361 kts 329°
2026-04-25 19:53 16.08367 -61.78293 8168 ft 359 kts 330°
2026-04-25 19:53 16.10550 -61.79540 7729 ft 359 kts 330°
2026-04-25 19:53 16.12736 -61.80785 7256 ft 357 kts 333°
2026-04-25 19:53 16.14998 -61.81536 6793 ft 328 kts 348°
2026-04-25 19:54 16.17169 -61.81852 6372 ft 304 kts 359°
2026-04-25 19:54 16.19184 -61.81726 5992 ft 285 kts
2026-04-25 19:54 16.21057 -61.81293 5624 ft 268 kts 20°
2026-04-25 19:54 16.22198 -61.80856 5391 ft 259 kts 24°
2026-04-25 19:55 16.24236 -61.79684 4945 ft 243 kts 36°
2026-04-25 19:55 16.25535 -61.78612 4625 ft 234 kts 46°
2026-04-25 19:55 16.26636 -61.77412 4322 ft 225 kts 53°
2026-04-25 19:55 16.27529 -61.76108 4025 ft 217 kts 60°
2026-04-25 19:56 16.28210 -61.74813 3756 ft 198 kts 67°
2026-04-25 19:56 16.28713 -61.73533 3506 ft 184 kts 74°
2026-04-25 19:56 16.29049 -61.72288 3264 ft 175 kts 80°
2026-04-25 19:56 16.29252 -61.71028 3033 ft 177 kts 85°
2026-04-25 19:57 16.29331 -61.69741 2798 ft 179 kts 92°
2026-04-25 19:57 16.29288 -61.68445 2555 ft 180 kts 99°
2026-04-25 19:57 16.29106 -61.67158 2319 ft 180 kts 102°
2026-04-25 19:57 16.28860 -61.65889 2083 ft 178 kts 106°
2026-04-25 19:58 16.28617 -61.64648 1902 ft 176 kts 102°
2026-04-25 19:58 16.28419 -61.63420 1813 ft 170 kts 103°
2026-04-25 19:58 16.28188 -61.62209 1510 ft 167 kts 104°
2026-04-25 19:58 16.27984 -61.61121 1253 ft 140 kts 104°
2026-04-25 19:59 16.27820 -61.60173 1028 ft 126 kts 104°
2026-04-25 19:59 16.27657 -61.59317 859 ft 117 kts 104°
2026-04-25 19:59 16.27509 -61.58511 707 ft 110 kts 105°
2026-04-25 19:59 16.27365 -61.57736 566 ft 109 kts 105°
2026-04-25 20:00 16.27227 -61.56961 423 ft 112 kts 102°
2026-04-25 20:00 16.27147 -61.56428 333 ft 108 kts 100°
2026-04-25 20:00 16.26924 -61.55433 146 ft 107 kts 104°
2026-04-25 20:00 16.26802 -61.54671 61 ft 108 kts 100°
2026-04-25 20:01 16.26556 -61.53330 14 ft 57 kts 99°
2026-04-25 20:01 16.26512 -61.53091 15 ft 29 kts 101°
2026-04-25 20:01 16.26476 -61.52899 15 ft 17 kts 102°
2026-04-25 20:02 16.26417 -61.52864 16 ft 11 kts 192°
2026-04-25 20:02 16.26345 -61.52881 18 ft 10 kts 194°
2026-04-25 20:02 16.26293 -61.52896 21 ft 7 kts 227°
2026-04-25 20:02 16.26289 -61.52912 21 ft 0 kts 279°
2026-04-25 20:12 16.26290 -61.52912 21 ft 0 kts 282°
2026-04-25 20:12 16.26303 -61.52916 21 ft 5 kts 45°
2026-04-25 20:12 16.26314 -61.52890 21 ft 6 kts 46°
2026-04-25 20:13 16.26392 -61.52867 17 ft 12 kts 15°
2026-04-25 20:13 16.26474 -61.52881 15 ft 14 kts 292°
2026-04-25 20:13 16.26494 -61.52988 14 ft 16 kts 280°
2026-04-25 20:13 16.26515 -61.53104 15 ft 17 kts 281°
2026-04-25 20:14 16.26538 -61.53229 14 ft 18 kts 280°
2026-04-25 20:14 16.26563 -61.53365 14 ft 19 kts 283°
2026-04-25 20:14 16.26576 -61.53497 17 ft 16 kts 250°
2026-04-25 20:14 16.26589 -61.53502 17 ft 0 kts 104°
2026-04-25 20:15 16.26586 -61.53487 17 ft 22 kts 101°
2026-04-25 20:15 16.26479 -61.52888 83 ft 135 kts 98°
2026-04-25 20:15 16.26294 -61.51761 932 ft 176 kts 105°
2026-04-25 20:15 16.25964 -61.50424 2182 ft 205 kts 103°
2026-04-25 20:16 16.25720 -61.48881 3370 ft 223 kts 101°
2026-04-25 20:16 16.25442 -61.47270 4633 ft 228 kts 102°
2026-04-25 20:16 16.25133 -61.45632 5879 ft 234 kts 103°
2026-04-25 20:16 16.24816 -61.43945 7049 ft 241 kts 103°
2026-04-25 20:17 16.24638 -61.42207 8141 ft 252 kts 86°
2026-04-25 20:17 16.25450 -61.40588 9236 ft 263 kts 45°
2026-04-25 20:17 16.27079 -61.39709 10291 ft 271 kts
2026-04-25 20:17 16.28944 -61.39906 11386 ft 272 kts 341°
2026-04-25 20:18 16.30733 -61.40578 12475 ft 274 kts 336°
2026-04-25 20:18 16.32264 -61.41699 13446 ft 271 kts 303°
2026-04-25 20:18 16.33080 -61.43452 14466 ft 271 kts 289°
2026-04-25 20:18 16.33846 -61.45266 15451 ft 276 kts 293°
2026-04-25 20:19 16.34801 -61.47028 16416 ft 282 kts 298°
2026-04-25 20:19 16.35842 -61.48748 17346 ft 287 kts 298°
2026-04-25 20:19 16.36878 -61.50539 18251 ft 291 kts 297°
2026-04-25 20:19 16.37904 -61.52366 19133 ft 295 kts 296°
2026-04-25 20:20 16.38952 -61.54220 19999 ft 299 kts 296°
2026-04-25 20:20 16.40024 -61.56094 20840 ft 303 kts 297°
2026-04-25 20:20 16.41104 -61.57998 21656 ft 307 kts 296°
2026-04-25 20:20 16.42202 -61.59924 22453 ft 311 kts 296°